Location: Bothell
(47.7630°N, 122.2040°W)
Time: 15:56:13
(UTC-07:00)

Amateur Radio Satellites - All Passes

Search period start: 19 April 2015 15:26
Search period end: 20 April 2015 15:26
Location: Bothell, 47.7630°N, 122.2040°W

Satellite Date Start Highest point End Downlink Frequencies (MHz)
Time Altitude Azimuth
TISAT 1 19 Apr 15:26:47 15:28:20 12° 302° (WNW) 15:29:42 437.305
Cosmos 2504 19 Apr 15:32:06 15:40:55 66° 284° (WNW) 15:49:44 435.465 / 435.565
ISS 19 Apr 15:42:16 15:45:28 55° 150° (SSE) 15:48:41 145.825
STARS 19 Apr 15:45:00 15:48:55 30° 95° (E) 15:52:52 437.465
JAS-2 19 Apr 15:45:27 15:53:07 61° 69° (ENE) 16:00:43 435.910
HORYU 2 19 Apr 15:54:12 15:58:42 83° 255° (WSW) 16:03:14 437.375
BEESAT 19 Apr 16:00:42 16:04:55 31° 294° (WNW) 16:09:04 436.000
SWISSCUBE 19 Apr 16:02:07 16:06:12 29° 295° (WNW) 16:10:14 437.505
KKS-1 19 Apr 16:09:45 16:14:16 80° 102° (ESE) 16:18:46 437.445
Gurwin Techsat 1B 19 Apr 16:20:01 16:23:17 16° 274° (W) 16:26:21 435.225
AO-7 19 Apr 16:22:14 16:30:31 77° 253° (WSW) 16:38:52 29.400- 29.500
GONETS M04 19 Apr 16:46:00 16:53:27 34° 84° (E) 17:01:09
PCSat 19 Apr 16:48:26 16:51:38 16° 25° (NNE) 16:54:55 145.827
CUTE-I 19 Apr 16:49:50 16:52:43 15° 56° (NE) 16:55:48 437.470
Cubesat XI-IV 19 Apr 16:56:49 17:00:09 18° 57° (ENE) 17:03:39 437.490
SO-50 19 Apr 17:01:15 17:03:56 14° 342° (NNW) 17:06:34 436.795
ITUPSAT 1 19 Apr 17:05:52 17:06:45 10° 306° (NW) 17:07:24 437.325
RS-15 19 Apr 17:14:59 17:25:56 78° 311° (NW) 17:37:14 29.354- 29.394
ISS 19 Apr 17:18:44 17:21:55 47° 349° (N) 17:25:06 145.825
STARS 19 Apr 17:21:24 17:25:23 32° 293° (WNW) 17:29:20 437.465
MOZHAYETS 4 19 Apr 17:23:52 17:28:08 36° 96° (E) 17:32:23
Cosmos 2504 19 Apr 17:30:39 17:36:26 18° 309° (NW) 17:41:48 435.465 / 435.565
JAS-2 19 Apr 17:31:23 17:38:30 36° 268° (W) 17:45:28 435.910
KKS-1 19 Apr 17:47:53 17:50:22 14° 301° (WNW) 17:52:42 437.445
DANDE 19 Apr 17:50:58 17:51:39 11° 82° (E) 17:52:31 436.750
CUSAT 1 19 Apr 17:53:53 17:56:15 19° 85° (E) 17:59:09 437.405
M-CUBED/EXP-1 PRIME 19 Apr 18:11:46 18:12:49 11° 89° (E) 18:14:07 437.505
AO-7 19 Apr 18:19:36 18:24:55 17° 276° (W) 18:29:48 29.400- 29.500
Cosmos 2499 19 Apr 18:23:15 18:29:56 26° 81° (E) 18:36:50 435.465 / 435.565
CUTE-I 19 Apr 18:26:46 18:32:06 84° 76° (ENE) 18:37:28 437.470
PCSat 19 Apr 18:31:05 18:36:23 51° 49° (NE) 18:41:41 145.827
Cubesat XI-IV 19 Apr 18:34:18 18:39:40 85° 255° (WSW) 18:45:03 437.490
GONETS M04 19 Apr 18:41:12 18:49:52 62° 285° (WNW) 18:58:38
CUBESAT XI-V 19 Apr 18:41:49 18:45:11 20° 90° (E) 18:48:39 437.345
SO-50 19 Apr 18:45:00 18:46:32 11° 6° (N) 18:48:06 436.795
ISS 19 Apr 18:55:30 18:58:40 44° 9° (N) 19:01:48 145.825
PRISM 19 Apr 18:56:00 18:58:30 16° 90° (E) 19:01:06 437.425
AUBIESAT-1 19 Apr 18:58:24 19:02:15 28° 99° (E) 19:05:52 437.475
MOZHAYETS 4 19 Apr 19:01:17 19:05:17 29° 294° (WNW) 19:09:12
BRITE-PL 19 Apr 19:18:20 19:20:56 17° 62° (ENE) 19:23:41 437.365/2234.400
STRAND 1 19 Apr 19:20:30 19:24:36 24° 92° (E) 19:28:46 437.568
RS-15 19 Apr 19:30:17 19:40:21 38° 342° (NNW) 19:50:43 29.354- 29.394
DANDE 19 Apr 19:31:14 19:34:10 41° 289° (WNW) 19:37:54 436.750
HO-68 19 Apr 19:32:50 19:38:56 32° 57° (ENE) 19:45:10 435.675
CUSAT 1 19 Apr 19:35:42 19:38:42 29° 295° (WNW) 19:42:27 437.405
GOMX 1 19 Apr 19:39:55 19:42:44 18° 62° (ENE) 19:45:45 467.674
M-CUBED/EXP-1 PRIME 19 Apr 19:43:58 19:48:34 89° 297° (WNW) 19:52:45 437.505
AAUSAT CUBESAT 2 19 Apr 19:47:32 19:48:32 11° 58° (ENE) 19:49:43 437.432
VERMONT LUNAR 19 Apr 19:52:15 19:52:56 10° 156° (SSE) 19:53:41 437.305
CUTE-I 19 Apr 20:09:50 20:12:58 15° 274° (W) 20:15:52 437.470
Cosmos 2499 19 Apr 20:13:23 20:22:19 82° 281° (W) 20:31:05 435.465 / 435.565
PCSat 19 Apr 20:14:54 20:19:37 30° 248° (WSW) 20:24:15 145.827
Cubesat XI-IV 19 Apr 20:18:13 20:20:42 13° 275° (W) 20:22:53 437.490
CUBESAT XI-V 19 Apr 20:18:30 20:22:58 50° 289° (WNW) 20:27:25 437.345
SO-50 19 Apr 20:25:05 20:28:54 22° 30° (NNE) 20:32:47 436.795
PRISM 19 Apr 20:30:19 20:34:22 53° 288° (WNW) 20:38:20 437.425
COMPASS 1 19 Apr 20:31:36 20:35:20 31° 68° (ENE) 20:39:08 437.405
ISS 19 Apr 20:31:54 20:35:09 65° 209° (SSW) 20:38:23 145.825
AUBIESAT-1 19 Apr 20:33:00 20:37:07 35° 299° (WNW) 20:40:54 437.475
UWE-3 19 Apr 20:33:58 20:35:29 12° 58° (ENE) 20:37:13 435.000/436.395/437.385
YUBILEINY 19 Apr 20:34:22 20:38:09 14° 45° (NE) 20:42:25 435.215
CANX-2 19 Apr 20:43:07 20:47:22 63° 73° (ENE) 20:51:39 2200.000
CINEMA 3 19 Apr 20:43:48 20:47:27 28° 66° (ENE) 20:51:17 145.822/145.860
GONETS M04 19 Apr 20:43:51 20:49:06 16° 312° (NW) 20:53:58
SEEDS 19 Apr 20:46:06 20:50:15 52° 72° (ENE) 20:54:27 437.485
DOVE 4 19 Apr 20:47:08 20:51:13 55° 72° (ENE) 20:55:30 437.250
PHONESAT 2.4 19 Apr 20:51:49 20:53:08 12° 156° (SSE) 20:54:33 2401.200-2431.200
CUTE 1.7 + AOD 2 19 Apr 20:53:16 20:57:33 74° 75° (ENE) 21:01:52 437.475
BRITE-PL 19 Apr 20:55:04 20:59:07 54° 260° (W) 21:03:16 437.365/2234.400
STRAND 1 19 Apr 20:59:10 21:04:06 49° 291° (WNW) 21:08:59 437.568
FUNcube-1 19 Apr 21:00:07 21:02:48 17° 61° (ENE) 21:05:39 145.935
GOMX 1 19 Apr 21:16:31 21:20:34 50° 261° (W) 21:24:46 467.674
UKube-1 19 Apr 21:16:37 21:19:18 17° 61° (ENE) 21:22:07 .
HO-68 19 Apr 21:19:10 21:26:18 64° 257° (WSW) 21:33:29 435.675
AAUSAT CUBESAT 2 19 Apr 21:19:16 21:23:30 83° 76° (ENE) 21:27:46 437.432
M-CUBED/EXP-1 PRIME 19 Apr 21:20:14 21:22:43 14° 309° (NW) 21:25:00 437.505
ZACube-1 19 Apr 21:21:42 21:25:15 26° 65° (ENE) 21:28:57 437.345
AISAT 19 Apr 21:22:18 21:22:52 10° 56° (NE) 21:23:39 437.250
VERMONT LUNAR 19 Apr 21:27:06 21:29:46 22° 172° (S) 21:32:27 437.305
CUBEBUG 2 19 Apr 21:27:07 21:31:10 41° 69° (ENE) 21:35:24 437.445
Oscar 11 19 Apr 21:35:59 21:40:16 62° 73° (ENE) 21:44:36 145.826/435.025
DELFI C3 19 Apr 21:37:46 21:41:42 48° 72° (ENE) 21:45:41 145.870
RS-15 19 Apr 21:46:26 21:56:30 36° 15° (NNE) 22:07:04 29.354- 29.394
DX 1 19 Apr 21:58:30 22:02:34 41° 69° (ENE) 22:06:40 434.975-435.025
SO-50 19 Apr 22:05:11 22:10:11 84° 52° (NE) 22:15:08 436.795
UWE-3 19 Apr 22:07:02 22:11:20 86° 76° (ENE) 22:15:48 435.000/436.395/437.385
COMPASS 1 19 Apr 22:07:20 22:11:03 28° 266° (W) 22:14:44 437.405
ISS 19 Apr 22:09:40 22:11:02 12° 225° (SW) 22:12:18 145.825
HUMSAT D 19 Apr 22:09:58 22:13:52 39° 70° (ENE) 22:17:52 437.325/437.525
Cosmos 2499 19 Apr 22:10:17 22:17:02 22° 304° (NW) 22:23:22 435.465 / 435.565
CINEMA 3 19 Apr 22:20:45 22:24:37 32° 266° (W) 22:28:36 145.822/145.860
CANX-2 19 Apr 22:21:18 22:23:48 15° 273° (W) 22:26:09 2200.000
Cosmos 2491 19 Apr 22:23:03 22:28:54 21° 78° (ENE) 22:35:09 435.465 / 435.565
SEEDS 19 Apr 22:23:29 22:26:26 17° 271° (W) 22:29:14 437.485
DOVE 4 19 Apr 22:26:49 22:29:30 16° 272° (W) 22:32:05 437.250
PHONESAT 2.4 19 Apr 22:27:48 22:30:42 23° 172° (S) 22:33:38 2401.200-2431.200
YUBILEINY 19 Apr 22:29:09 22:37:43 54° 72° (ENE) 22:46:14 435.215
CUTE 1.7 + AOD 2 19 Apr 22:32:04 22:34:04 13° 274° (W) 22:35:53 437.475
FUNcube-1 19 Apr 22:34:26 22:38:41 63° 259° (W) 22:43:05 145.935
VELOX 1 19 Apr 22:39:20 22:43:34 50° 71° (ENE) 22:47:52 145.980
ANTELSAT 19 Apr 22:49:25 22:52:49 20° 90° (E) 22:56:19 437.575/2403.000
UKube-1 19 Apr 22:50:45 22:55:02 63° 258° (WSW) 22:59:20 .
50 SAT 19 Apr 22:51:59 22:55:56 68° 74° (ENE) 22:59:58 437.505
AISAT 19 Apr 22:54:22 22:58:44 73° 74° (ENE) 23:03:09 437.250
ZACube-1 19 Apr 22:57:31 23:01:30 36° 264° (W) 23:05:35 437.345
AAUSAT CUBESAT 2 19 Apr 22:58:37 22:59:49 11° 275° (W) 23:00:46 437.432
VERMONT LUNAR 19 Apr 23:04:05 23:06:46 22° 188° (S) 23:09:25 437.305
CUBEBUG 1 19 Apr 23:04:10 23:08:16 43° 70° (ENE) 23:12:24 437.445
CUBEBUG 2 19 Apr 23:04:40 23:08:06 22° 269° (W) 23:11:33 437.445
QB50P2 19 Apr 23:05:22 23:07:20 13° 87° (E) 23:09:30 145.880/145.840
ESTCUBE 1 19 Apr 23:10:22 23:14:48 57° 72° (ENE) 23:19:16 437.505/2401.250
TISAT 1 19 Apr 23:11:12 23:13:10 13° 60° (ENE) 23:15:19 437.305
HO-68 19 Apr 23:12:49 23:15:42 12° 279° (W) 23:18:03 435.675
Oscar 11 19 Apr 23:14:16 23:16:56 15° 272° (W) 23:19:27 145.826/435.025
DELFI C3 19 Apr 23:14:20 23:17:10 17° 270° (W) 23:19:52 145.870
SPROUT 19 Apr 23:15:43 23:18:34 18° 62° (ENE) 23:21:31 437.525
NANOSAT C BR1 19 Apr 23:27:13 23:30:27 21° 92° (E) 23:33:47 145.865
POPSAT HIP 1 19 Apr 23:27:21 23:30:37 21° 92° (E) 23:33:58 437.405
Cosmos 2504 19 Apr 23:29:30 23:33:50 15° 48° (NE) 23:38:26 435.465 / 435.565
DX 1 19 Apr 23:35:34 23:39:01 22° 267° (W) 23:42:23 434.975-435.025
TIGRISAT 19 Apr 23:42:11 23:46:52 59° 100° (E) 23:51:32 435.000
UNISAT 6 19 Apr 23:43:26 23:48:09 62° 101° (E) 23:52:50 437.425
HUMSAT D 19 Apr 23:46:25 23:49:49 23° 268° (W) 23:53:10 437.325/437.525
SO-50 19 Apr 23:47:04 23:50:10 16° 249° (WSW) 23:53:04 436.795
UWE-3 19 Apr 23:47:27 23:48:40 11° 276° (W) 23:49:38 435.000/436.395/437.385
POLYITAN 1 19 Apr 23:53:30 23:57:33 39° 97° (E) 00:01:38 437.675
O/OREOS (USA 219) 19 Apr 23:59:55 00:04:20 49° 110° (ESE) 00:08:47 437.305
RS-15 19 Apr 23:59:56 00:11:20 70° 45° (NE) 00:23:18 29.354- 29.394
SWISSCUBE 20 Apr 00:00:29 00:01:26 11° 54° (NE) 00:02:37 437.505
DUCHIFAT 1 20 Apr 00:02:40 00:06:47 46° 99° (E) 00:10:56 145.980
PHONESAT 2.4 20 Apr 00:05:31 00:08:25 23° 189° (S) 00:11:18 2401.200-2431.200
QB50P1 20 Apr 00:15:47 00:20:04 66° 102° (ESE) 00:24:20 145.935-145.965
Cosmos 2491 20 Apr 00:15:56 00:24:40 89° 106° (ESE) 00:33:31 435.465 / 435.565
VELOX 1 20 Apr 00:17:15 00:20:28 19° 269° (W) 00:23:35 145.980
ANTELSAT 20 Apr 00:25:20 00:29:59 55° 288° (WNW) 00:34:34 437.575/2403.000
YUBILEINY 20 Apr 00:26:23 00:34:22 40° 274° (W) 00:42:10 435.215
BUGSAT 1 20 Apr 00:26:37 00:30:41 60° 101° (E) 00:34:47 437.445
50 SAT 20 Apr 00:29:39 00:31:20 12° 273° (W) 00:32:50 437.505
AISAT 20 Apr 00:33:44 00:35:56 13° 273° (W) 00:37:58 437.250
QB50P2 20 Apr 00:39:30 00:43:48 70° 287° (WNW) 00:48:04 145.880/145.840
CUBEBUG 1 20 Apr 00:41:30 00:44:52 21° 268° (W) 00:48:09 437.445
VERMONT LUNAR 20 Apr 00:42:54 00:43:35 10° 204° (SSW) 00:44:13 437.305
TISAT 1 20 Apr 00:44:16 00:48:27 76° 257° (WSW) 00:52:40 437.305
ESTCUBE 1 20 Apr 00:49:00 00:52:05 17° 271° (W) 00:55:04 437.505/2401.250
SPROUT 20 Apr 00:50:06 00:54:18 55° 260° (W) 00:58:31 437.525
ITUPSAT 1 20 Apr 00:58:03 01:02:10 30° 65° (ENE) 01:06:21 437.325
NANOSAT C BR1 20 Apr 01:02:28 01:06:31 42° 290° (WNW) 01:10:34 145.865
POPSAT HIP 1 20 Apr 01:02:39 01:06:43 42° 290° (WNW) 01:10:46 437.405
TIGRISAT 20 Apr 01:19:45 01:23:14 20° 298° (WNW) 01:26:37 435.000
UNISAT 6 20 Apr 01:21:07 01:24:32 19° 298° (WNW) 01:27:48 437.425
Cosmos 2504 20 Apr 01:21:17 01:29:35 61° 75° (ENE) 01:37:16 435.465 / 435.565
POLYITAN 1 20 Apr 01:29:48 01:33:19 24° 295° (WNW) 01:36:45 437.675
BEESAT 20 Apr 01:32:22 01:37:04 60° 71° (ENE) 01:41:49 436.000
SWISSCUBE 20 Apr 01:33:43 01:38:28 66° 72° (ENE) 01:43:15 437.505
KKS-1 20 Apr 01:37:00 01:39:27 15° 59° (ENE) 01:42:03 437.445
DUCHIFAT 1 20 Apr 01:39:08 01:42:21 21° 296° (WNW) 01:45:29 145.980
O/OREOS (USA 219) 20 Apr 01:40:15 01:44:03 24° 310° (NW) 01:47:47 437.305
PHONESAT 2.4 20 Apr 01:44:51 01:45:58 11° 205° (SSW) 01:47:00 2401.200-2431.200
QB50P1 20 Apr 01:52:52 01:55:30 16° 299° (WNW) 01:58:00 145.935-145.965
AIST 1 20 Apr 02:02:04 02:06:24 78° 98° (E) 02:10:43
BUGSAT 1 20 Apr 02:03:14 02:05:47 16° 298° (WNW) 02:08:14 437.445
RS-15 20 Apr 02:12:46 02:23:25 44° 249° (WSW) 02:34:16 29.354- 29.394
Cosmos 2491 20 Apr 02:16:04 02:22:59 24° 303° (WNW) 02:29:40 435.465 / 435.565
ITUPSAT 1 20 Apr 02:35:29 02:39:58 38° 263° (W) 02:44:27 437.325
Oscar 19 20 Apr 02:37:07 02:42:17 62° 101° (E) 02:47:28 437.125/150
STARS 20 Apr 02:45:09 02:49:13 40° 69° (ENE) 02:53:23 437.465
Gurwin Techsat 1B 20 Apr 02:50:33 02:54:50 25° 91° (E) 02:59:12 435.225
GONETS M04 20 Apr 02:51:05 02:57:22 22° 54° (NE) 03:03:57
ITAMSAT 1 20 Apr 02:57:54 03:02:28 32° 95° (E) 03:07:06 435.822/435.867
KKS-1 20 Apr 03:11:09 03:15:35 75° 257° (WSW) 03:20:03 437.445
BEESAT 20 Apr 03:11:58 03:15:22 19° 270° (W) 03:18:38 436.000
SWISSCUBE 20 Apr 03:13:42 03:16:52 17° 271° (W) 03:19:51 437.505
Cosmos 2504 20 Apr 03:15:22 03:22:30 32° 277° (W) 03:29:02 435.465 / 435.565
AIST 1 20 Apr 03:42:46 03:44:43 12° 298° (WNW) 03:46:30
HORYU 2 20 Apr 03:43:26 03:46:01 15° 88° (E) 03:48:45 437.375
Cosmos 2499 20 Apr 04:11:33 04:13:20 11° 42° (NE) 04:15:34 435.465 / 435.565
BEESAT 2 20 Apr 04:15:08 04:17:54 18° 114° (ESE) 04:20:48 435.950
AUBIESAT-1 20 Apr 04:17:11 04:19:04 13° 50° (NE) 04:21:09 437.475
Oscar 19 20 Apr 04:17:16 04:21:16 22° 299° (WNW) 04:25:09 437.125/150
AO-7 20 Apr 04:20:19 04:27:20 30° 92° (E) 04:34:31 29.400- 29.500
BEESAT 3 20 Apr 04:21:18 04:24:35 24° 116° (ESE) 04:27:57 437.485
DANDE 20 Apr 04:21:44 04:27:20 31° 67° (ENE) 04:34:13 436.750
STARS 20 Apr 04:22:19 04:25:52 23° 267° (W) 04:29:22 437.465
CUSAT 1 20 Apr 04:23:23 04:29:34 40° 69° (ENE) 04:36:59 437.405
MOZHAYETS 4 20 Apr 04:28:53 04:33:23 50° 71° (ENE) 04:37:54
Gurwin Techsat 1B 20 Apr 04:29:59 04:35:09 52° 291° (WNW) 04:40:17 435.225
ITAMSAT 1 20 Apr 04:37:16 04:42:05 39° 294° (WNW) 04:46:52 435.822/435.867
JAS-2 20 Apr 04:37:45 04:43:59 37° 92° (E) 04:49:35 435.910
AIST 2 20 Apr 04:38:48 04:39:53 11° 110° (ESE) 04:41:12 435.215
GONETS M04 20 Apr 04:47:01 04:55:57 81° 79° (E) 05:04:49
M-CUBED/EXP-1 PRIME 20 Apr 05:00:51 05:04:57 29° 59° (ENE) 05:09:10 437.505
HORYU 2 20 Apr 05:18:41 05:23:12 66° 287° (WNW) 05:27:39 437.375
AUBIESAT-1 20 Apr 05:48:21 05:53:03 66° 67° (ENE) 05:57:52 437.475
CUBESAT XI-V 20 Apr 05:48:24 05:52:24 30° 66° (ENE) 05:56:26 437.345
PRISM 20 Apr 05:49:27 05:52:29 20° 63° (ENE) 05:55:37 437.425
BEESAT 2 20 Apr 05:51:34 05:55:39 60° 311° (NW) 05:59:48 435.950
BEESAT 3 20 Apr 05:58:26 06:02:24 45° 314° (NW) 06:06:25 437.485
Cosmos 2499 20 Apr 06:01:35 06:09:22 46° 70° (ENE) 06:16:36 435.465 / 435.565
DANDE 20 Apr 06:04:29 06:10:54 63° 263° (W) 06:18:51 436.750
CUSAT 1 20 Apr 06:05:56 06:12:30 52° 265° (W) 06:20:13 437.405
MOZHAYETS 4 20 Apr 06:07:22 06:10:55 21° 270° (W) 06:14:23
AO-7 20 Apr 06:12:36 06:20:53 71° 294° (WNW) 06:29:09 29.400- 29.500
AIST 2 20 Apr 06:13:33 06:17:50 84° 129° (SE) 06:22:10 435.215
JAS-2 20 Apr 06:22:41 06:29:15 45° 295° (WNW) 06:35:01 435.910
M-CUBED/EXP-1 PRIME 20 Apr 06:35:05 06:39:37 44° 257° (WSW) 06:44:16 437.505
STRAND 1 20 Apr 06:39:27 06:44:23 50° 69° (ENE) 06:49:20 437.568
CUTE-I 20 Apr 06:40:56 06:45:16 25° 92° (E) 06:49:41 437.470
GONETS M04 20 Apr 06:45:02 06:51:55 25° 280° (W) 06:58:30
Cubesat XI-IV 20 Apr 06:48:30 06:53:05 30° 94° (E) 06:57:44 437.490
PRISM 20 Apr 07:23:40 07:27:42 46° 260° (W) 07:31:45 437.425
AUBIESAT-1 20 Apr 07:24:58 07:28:18 18° 266° (W) 07:31:33 437.475
CUBESAT XI-V 20 Apr 07:25:29 07:29:46 35° 264° (W) 07:34:02 437.345
BEESAT 2 20 Apr 07:32:16 07:34:40 14° 333° (NNW) 07:36:58 435.950
BEESAT 3 20 Apr 07:39:39 07:41:29 12° 336° (NNW) 07:43:13 437.485
DANDE 20 Apr 07:50:27 07:53:35 13° 277° (W) 07:56:26 436.750
CUSAT 1 20 Apr 07:53:31 07:54:23 10° 280° (W) 07:54:42 437.405
AIST 2 20 Apr 07:53:46 07:57:00 20° 327° (NNW) 08:00:11 435.215
Cosmos 2499 20 Apr 07:55:01 08:02:30 42° 273° (W) 08:09:22 435.465 / 435.565
AO-7 20 Apr 08:06:35 08:12:27 21° 315° (NW) 08:18:06 29.400- 29.500
JAS-2 20 Apr 08:10:37 08:12:34 11° 317° (NW) 08:14:10 435.910
STRAND 1 20 Apr 08:19:41 08:23:53 24° 268° (W) 08:27:59 437.568
CUTE-I 20 Apr 08:20:31 08:25:40 51° 291° (WNW) 08:30:47 437.470
Cosmos 2491 20 Apr 08:27:10 08:31:10 14° 45° (NE) 08:35:38 435.465 / 435.565
O/OREOS (USA 219) 20 Apr 08:27:39 08:31:20 24° 50° (NE) 08:35:02 437.305
Cubesat XI-IV 20 Apr 08:28:20 08:33:23 44° 293° (WNW) 08:38:23 437.490
CUTE 1.7 + AOD 2 20 Apr 08:38:11 08:38:40 10° 84° (E) 08:39:24 437.475
DOVE 4 20 Apr 08:43:27 08:45:56 14° 86° (E) 08:48:43 437.250
HO-68 20 Apr 08:43:57 08:49:09 22° 88° (E) 08:54:35 435.675
BRITE-PL 20 Apr 08:55:09 08:59:35 36° 96° (E) 09:04:21 437.365/2234.400
AAUSAT CUBESAT 2 20 Apr 09:01:40 09:02:29 11° 85° (E) 09:03:33 437.432
TIGRISAT 20 Apr 09:11:19 09:12:36 11° 56° (NE) 09:14:05 435.000
UNISAT 6 20 Apr 09:12:27 09:14:02 12° 57° (ENE) 09:15:50 437.425
GOMX 1 20 Apr 09:13:48 09:18:19 36° 96° (E) 09:23:08 467.674
PCSat 20 Apr 09:17:31 09:21:27 21° 108° (ESE) 09:25:33 145.827
QB50P1 20 Apr 09:40:37 09:40:43 10° 57° (ENE) 09:41:02 145.935-145.965
YUBILEINY 20 Apr 09:45:56 09:47:32 11° 70° (ENE) 09:49:49 435.215
COMPASS 1 20 Apr 09:47:00 09:50:55 36° 96° (E) 09:54:49 437.405
ANTELSAT 20 Apr 09:51:45 09:55:26 26° 65° (ENE) 09:59:17 437.575/2403.000
UWE-3 20 Apr 09:54:41 09:57:23 15° 87° (E) 10:00:16 435.000/436.395/437.385
CANX-2 20 Apr 10:00:53 10:05:14 81° 103° (ESE) 10:09:31 2200.000
QB50P2 20 Apr 10:01:43 10:04:20 17° 62° (ENE) 10:07:05 145.880/145.840
SEEDS 20 Apr 10:02:46 10:07:02 64° 101° (E) 10:11:14 437.485
O/OREOS (USA 219) 20 Apr 10:06:40 10:11:02 47° 250° (WSW) 10:15:19 437.305
CUTE 1.7 + AOD 2 20 Apr 10:10:59 10:15:20 88° 285° (WNW) 10:19:37 437.475
CINEMA 3 20 Apr 10:11:07 10:15:49 47° 98° (E) 10:20:39 145.822/145.860
DOVE 4 20 Apr 10:19:24 10:24:20 85° 285° (WNW) 10:29:31 437.250
FUNcube-1 20 Apr 10:19:59 10:23:26 21° 91° (E) 10:26:59 145.935
Cosmos 2491 20 Apr 10:22:05 10:30:43 55° 72° (ENE) 10:39:22 435.465 / 435.565
NANOSAT C BR1 20 Apr 10:23:13 10:26:38 25° 65° (ENE) 10:30:07 145.865
POPSAT HIP 1 20 Apr 10:23:35 10:27:01 25° 66° (ENE) 10:30:32 437.405
HO-68 20 Apr 10:30:35 10:37:50 83° 289° (WNW) 10:45:01 435.675
BRITE-PL 20 Apr 10:33:48 10:38:05 33° 292° (WNW) 10:42:36 437.365/2234.400
AAUSAT CUBESAT 2 20 Apr 10:34:34 10:38:48 83° 286° (WNW) 10:43:00 437.432
UKube-1 20 Apr 10:35:55 10:38:41 17° 90° (E) 10:41:36 .
ZACube-1 20 Apr 10:42:23 10:46:35 34° 96° (E) 10:50:49 437.345
TIGRISAT 20 Apr 10:44:07 10:48:34 76° 74° (ENE) 10:53:12 435.000
AISAT 20 Apr 10:44:13 10:45:17 11° 85° (E) 10:46:37 437.250
UNISAT 6 20 Apr 10:45:37 10:50:05 80° 75° (ENE) 10:54:43 437.425
DELFI C3 20 Apr 10:48:56 10:52:54 51° 99° (E) 10:56:52 145.870
POLYITAN 1 20 Apr 10:49:48 10:53:49 46° 71° (ENE) 10:57:55 437.675
CUBEBUG 2 20 Apr 10:50:49 10:55:32 62° 100° (E) 11:00:16 437.445
GOMX 1 20 Apr 10:52:04 10:56:25 33° 292° (WNW) 11:00:59 467.674
BEESAT 2 20 Apr 10:53:27 10:54:38 11° 20° (NNE) 10:55:53 435.950
Oscar 11 20 Apr 10:55:57 11:00:21 79° 103° (ESE) 11:04:41 145.826/435.025
DUCHIFAT 1 20 Apr 10:58:17 11:02:22 54° 72° (ENE) 11:06:30 145.980
PCSat 20 Apr 10:59:01 11:04:25 69° 307° (NW) 11:09:52 145.827
BEESAT 3 20 Apr 10:59:29 11:01:16 12° 24° (NNE) 11:03:06 437.485
QB50P1 20 Apr 11:11:42 11:15:54 76° 75° (ENE) 11:20:09 145.935-145.965
DX 1 20 Apr 11:19:19 11:23:32 48° 99° (E) 11:27:46 434.975-435.025
BUGSAT 1 20 Apr 11:19:57 11:23:56 65° 74° (ENE) 11:27:57 437.445
COMPASS 1 20 Apr 11:22:58 11:26:29 25° 294° (WNW) 11:29:54 437.405
HUMSAT D 20 Apr 11:26:05 11:30:18 46° 98° (E) 11:34:30 437.325/437.525
ANTELSAT 20 Apr 11:27:49 11:32:03 40° 263° (W) 11:36:25 437.575/2403.000
UWE-3 20 Apr 11:29:47 11:34:27 70° 287° (WNW) 11:39:07 435.000/436.395/437.385
YUBILEINY 20 Apr 11:34:01 11:42:28 54° 90° (E) 11:51:00 435.215
QB50P2 20 Apr 11:35:40 11:39:50 60° 259° (W) 11:44:02 145.880/145.840
CANX-2 20 Apr 11:38:28 11:40:37 13° 300° (WNW) 11:42:36 2200.000
SEEDS 20 Apr 11:39:45 11:42:24 16° 298° (WNW) 11:44:53 437.485
CINEMA 3 20 Apr 11:48:46 11:52:49 26° 295° (WNW) 11:56:52 145.822/145.860
CUTE 1.7 + AOD 2 20 Apr 11:48:58 11:50:37 12° 301° (WNW) 11:52:05 437.475
FUNcube-1 20 Apr 11:55:37 12:00:03 49° 289° (WNW) 12:04:28 145.935
NANOSAT C BR1 20 Apr 11:58:28 12:02:21 36° 263° (W) 12:06:15 145.865
DOVE 4 20 Apr 11:58:53 12:01:31 14° 301° (WNW) 12:03:59 437.250
POPSAT HIP 1 20 Apr 11:58:54 12:02:47 35° 263° (W) 12:06:41 437.405
50 SAT 20 Apr 12:00:39 12:04:44 69° 102° (ESE) 12:08:46 437.505
VELOX 1 20 Apr 12:02:43 12:07:08 63° 102° (ESE) 12:11:32 145.980
AIST 1 20 Apr 12:06:05 12:09:43 27° 70° (ENE) 12:13:23
UKube-1 20 Apr 12:10:58 12:15:14 55° 289° (WNW) 12:19:26 .
AAUSAT CUBESAT 2 20 Apr 12:12:40 12:13:47 11° 302° (WNW) 12:14:41 437.432
AISAT 20 Apr 12:18:08 12:22:37 88° 285° (WNW) 12:27:05 437.250
ZACube-1 20 Apr 12:18:50 12:22:53 30° 293° (WNW) 12:26:52 437.345
Cosmos 2491 20 Apr 12:19:23 12:27:23 39° 274° (W) 12:35:16 435.465 / 435.565
HO-68 20 Apr 12:19:28 12:24:39 21° 309° (NW) 12:29:39 435.675
Oscar 19 20 Apr 12:20:02 12:23:41 20° 60° (ENE) 12:27:28 437.125/150
TIGRISAT 20 Apr 12:23:42 12:26:00 13° 274° (W) 12:28:07 435.000
DELFI C3 20 Apr 12:24:58 12:27:43 17° 297° (WNW) 12:30:22 145.870
UNISAT 6 20 Apr 12:25:31 12:27:36 13° 275° (W) 12:29:29 437.425
CUBEBUG 1 20 Apr 12:25:37 12:29:54 55° 100° (E) 12:34:10 437.445
SO-50 20 Apr 12:25:59 12:27:35 12° 109° (ESE) 12:29:26 436.795
POLYITAN 1 20 Apr 12:26:55 12:30:02 19° 269° (W) 12:33:03 437.675
TISAT 1 20 Apr 12:26:59 12:29:03 14° 88° (E) 12:31:18 437.305
CUBEBUG 2 20 Apr 12:28:25 12:31:50 20° 298° (WNW) 12:35:10 437.445
BEESAT 2 20 Apr 12:30:04 12:33:56 36° 43° (NE) 12:37:46 435.950
Oscar 11 20 Apr 12:33:41 12:35:59 14° 300° (WNW) 12:38:07 145.826/435.025
SPROUT 20 Apr 12:33:59 12:37:10 20° 91° (E) 12:40:28 437.525
DUCHIFAT 1 20 Apr 12:35:51 12:38:35 16° 271° (W) 12:41:12 145.980
BEESAT 3 20 Apr 12:36:19 12:40:19 46° 46° (NE) 12:44:16 437.485
ESTCUBE 1 20 Apr 12:36:21 12:40:52 79° 103° (ESE) 12:45:21 437.505/2401.250
ITAMSAT 1 20 Apr 12:43:44 12:45:34 12° 53° (NE) 12:47:37 435.822/435.867
PCSat 20 Apr 12:45:02 12:48:54 19° 330° (NNW) 12:52:40 145.827
QB50P1 20 Apr 12:50:47 12:52:25 12° 274° (W) 12:53:49 145.935-145.965
AIST 2 20 Apr 12:54:14 12:57:53 27° 38° (NE) 13:01:31 435.215
DX 1 20 Apr 12:56:13 12:59:32 21° 297° (WNW) 13:02:44 434.975-435.025
BUGSAT 1 20 Apr 12:58:05 12:59:56 12° 272° (W) 13:01:37 437.445
HUMSAT D 20 Apr 13:02:28 13:05:47 21° 296° (WNW) 13:09:02 437.325/437.525
UWE-3 20 Apr 13:08:58 13:10:14 11° 303° (WNW) 13:11:17 435.000/436.395/437.385
YUBILEINY 20 Apr 13:31:25 13:39:40 40° 293° (WNW) 13:47:50 435.215
BEESAT 20 Apr 13:31:26 13:32:59 12° 85° (E) 13:34:47 436.000
SWISSCUBE 20 Apr 13:32:28 13:34:34 13° 86° (E) 13:36:54 437.505
AO-7 20 Apr 13:34:53 13:39:33 17° 40° (NE) 13:44:30 29.400- 29.500
50 SAT 20 Apr 13:36:54 13:39:06 14° 299° (WNW) 13:41:09 437.505
VELOX 1 20 Apr 13:40:21 13:43:17 17° 299° (WNW) 13:46:05 145.980
AIST 1 20 Apr 13:43:38 13:47:24 30° 269° (W) 13:51:07
AISAT 20 Apr 13:56:39 13:58:36 13° 302° (WNW) 14:00:23 437.250
Oscar 19 20 Apr 13:57:28 14:02:36 68° 259° (WSW) 14:07:47 437.125/150
TISAT 1 20 Apr 14:01:08 14:05:21 67° 287° (WNW) 14:09:33 437.305
Cosmos 2504 20 Apr 14:02:11 14:10:29 48° 89° (E) 14:18:52 435.465 / 435.565
SO-50 20 Apr 14:02:42 14:07:22 80° 126° (SE) 14:12:15 436.795
CUBEBUG 1 20 Apr 14:02:52 14:05:55 19° 298° (WNW) 14:08:53 437.445
BEESAT 2 20 Apr 14:08:19 14:12:01 31° 242° (WSW) 14:15:36 435.950
SPROUT 20 Apr 14:09:23 14:13:31 45° 290° (WNW) 14:17:38 437.525
ESTCUBE 1 20 Apr 14:14:41 14:17:12 15° 301° (WNW) 14:19:34 437.505/2401.250
Gurwin Techsat 1B 20 Apr 14:14:45 14:19:54 53° 70° (ENE) 14:25:05 435.225
BEESAT 3 20 Apr 14:14:49 14:18:07 23° 244° (WSW) 14:21:19 437.485
ITAMSAT 1 20 Apr 14:19:05 14:24:13 67° 72° (ENE) 14:29:24 435.822/435.867
RS-15 20 Apr 14:30:50 14:38:52 26° 104° (ESE) 14:47:28 29.354- 29.394
ITUPSAT 1 20 Apr 14:32:20 14:36:52 42° 98° (E) 14:41:24 437.325
AIST 2 20 Apr 14:32:34 14:36:44 51° 238° (WSW) 14:40:47 435.215
HORYU 2 20 Apr 14:44:48 14:48:15 23° 63° (ENE) 14:51:48 437.375
ISS 20 Apr 14:48:39 14:51:36 32° 144° (SE) 14:54:35 145.825
JAS-2 20 Apr 14:52:08 14:58:40 31° 59° (ENE) 15:05:13 435.910
KKS-1 20 Apr 14:59:54 15:02:46 17° 89° (E) 15:05:47 437.445
BEESAT 20 Apr 15:06:50 15:11:39 89° 116° (ESE) 15:16:25 436.000
SWISSCUBE 20 Apr 15:08:22 15:13:10 82° 285° (WNW) 15:17:54 437.505
